Regional Weather Roundup
Issued by NWS Newport/Morehead, NC

Current Version | Previous Version | Graphics & Text | Print | Product List | Glossary Off
Versions: 1 2 3 4 5 6 7 8 9 10 11 12 13 14 15 16 17 18 19 20 21 22 23 24 25 26 27 28 29 30 31 32 33 34 35 36 37 38 39 40 41 42 43 44 45 46 47 48 49 50
000 ASUS42 KMHX 250125 RWRMHX WEATHER ROUNDUP FOR EASTERN NORTH CAROLINA NATIONAL WEATHER SERVICE NEWPORT/MOREHEAD CITY NC 800 PM EST FRI NOV 24 2017 NOTE: "FAIR" INDICATES FEW OR NO CLOUDS BELOW 12,000 FEET WITH NO SIGNIFICANT WEATHER AND/OR OBSTRUCTIONS TO VISIBILITY NCZ015>017-031-032-045>047-102-103-250200- NORTH COAST CITY SKY/WX TMP DP RH WIND PRES REMARKS EDENTON CLEAR 45 40 82 CALM 29.99R ELIZABETH CITY CLEAR 44 41 89 N5 29.98S KITTY HAWK PTCLDY 53 46 76 CALM 29.95S MANTEO CLOUDY 52 47 83 NE6 29.97R $$ NCZ045>047-081-094-103-104-250200- CENTRAL COAST CITY SKY/WX TMP DP RH WIND PRES REMARKS FRISCO CLEAR 55 51 86 VRB7 29.93S $$ NCZ095-097-098-100-101-250200- SOUTHERN COAST CITY SKY/WX TMP DP RH WIND PRES REMARKS BEAUFORT PTCLDY 50 45 83 N9 29.94S CEDAR ISLAND NOT AVBL JACKSONVILLE MOCLDY 52 42 69 NE9 29.94F PINEY ISLAND N/A N/A N/A N/A N9 29.94F WILMINGTON PTCLDY 52 38 58 NE6 29.94F $$ NCZ011>013-027>030-043-044-078>080-089-090>093-098-250200- COASTAL PLAIN CITY SKY/WX TMP DP RH WIND PRES REMARKS AHOSKIE CLEAR 35 33 92 CALM 29.98F CLINTON CLOUDY 42 37 79 CALM 29.96F ELIZABETHTOWN NOT AVBL GOLDSBORO CLOUDY 41 33 74 W3 29.95S GREENVILLE CLEAR 41 36 81 CALM 29.99S HAVELOCK CLEAR 50 32 50 N10 29.96S KENANSVILLE PTCLDY 39 34 81 CALM 29.96S KINSTON PTCLDY 43 36 75 CALM 29.97S NEW BERN PTCLDY 47 42 83 NE6 29.97F RICHLANDS CLEAR 44 41 89 CALM 29.96S ROCKY MOUNT CLEAR 36 34 92 CALM 29.98S WASHINGTON PTCLDY 44 38 80 NE3 29.98S WHITEVILLE PTCLDY 51 32 49 CALM 29.95S $$ AMZ130-135-150-152-154-156-158-170-250-252-270-ANZ085-086-088-633-658-670-250200- MARINE OBSERVATIONS STATION/POSITION TIME TEMP WIND PRES WAVE SWELL AIR SEA DIR/SP/G HT/PER HT/PER (UTC) (F) (DEG/KT/KT) (MB) (FT/S) (FT/S) CHESAPEAKE LIGHT NOT AVBL 64 E VA BEACH 0050 58 61 60/ 10/ 12 1015.1 4/ 9 3/ 9 DUCK 0100 55 56 40/ 11/ 12 1014.2 2 E DUCK 0100 59 N/A 4/10 2/11 OREGON INLET 0100 56 55 20/ 9/ 13 1014.0 13E OREGON INLT 0048 61 N/A 4/ 9 3/ 9 HATTERAS CG 0100 55 58 10/ 15/ 16 1013.1 DIAMOND BUOY 0100 64 69 10/ 19/ 25 1012.6 CAPE LOOKOUT 0100 10/ 12/ 14 1013.6 BEAUFORT LAB 0100 52 57 10/ 11/ 13 1013.5 30 SE NEW RVR IN 0108 58 66 50/ 16/ 21 1013.0 30 SE NEW RVR IN 0100 66 N/A 7/ 9 2/11 27 SE WRIGHTSVLE 0108 60 72 30/ 21/ 27 1012.7 5 SE WRIGHTSVLE 0008 57 63 20/ 16/ 21 1013.3 225 S CAPE HAT 0050 72 76 100/ 12/ 16 1009.3 10/ 9 8/ 9 41 SE CHARLESTON 0100 63 73 360/ 19/ 23 1012.5 $$

USA.gov is the U.S. government's official web portal to all federal, state and local government web resources and services.